Regional Weather Roundup
Issued by NWS

Home | Current Version | Previous Version | Graphics & Text | Print | Product List | Glossary On
Versions: 1 2 3 4 5 6 7 8 9 10 11 12 13 14 15 16 17 18 19 20 21 22 23 24 25 26 27 28 29 30 31 32 33 34 35 36 37 38 39 40 41 42 43 44 45 46 47 48 49 50
000
ASUS43 KIND 252159
RWRIN

WEATHER ROUNDUP FOR INDIANA
NATIONAL WEATHER SERVICE INDIANAPOLIS IN
600 PM EDT THU AUG 25 2016

NOTE: "FAIR" INDICATES FEW OR NO CLOUDS BELOW 12,000 FEET WITH NO
SIGNIFICANT WEATHER AND/OR OBSTRUCTIONS TO VISIBILITY.

* - STATION DOES NOT REPORT WEATHER SUCH AS PRECIPITATION OR FOG.

+ - STATION NOT QUALITY CONTROLLED BY THE NATIONAL WEATHER SERVICE.
    USE DATA WITH CAUTION...ESPECIALLY DEWPOINT AND RELATIVE
    HUMIDITY OBSERVATIONS.

INZ001>003-010>013-019-020-252300-
NORTHWEST INDIANA

CITY           SKY/WX    TMP DP  RH WIND       PRES   REMARKS
GARY /AIRPORT/ PTSUNNY   81  72  74 VRB5      30.04
KNOX *+        MOSUNNY   81  48  32 W6        30.02F
MONTICELLO +   MOSUNNY   83  67  58 W9        30.03F
RENSSELAER +   MOSUNNY   82  72  69 SW8       30.03F

$$

LMZ046-743>745-252300-
SOUTHERN LAKE MICHIGAN

STATION/POSITION TIME  TEMP    WIND        PRES    WAVE
                       AIR SEA DIR/SP/G            HT
                 (UTC) (F)     (DEG/KT/KT) (MB)    (FT)
BURNS HARBOR     2100   77      50/  6/  6 1017.6S
MICHIGAN CITY    2100   79     350/  3/  3   N/A
5NW MICH CITY    2100   74 74   20/  4/  4   N/A     1

$$

INZ004-005-014>016-021>024-252300-
NORTH CENTRAL INDIANA

CITY           SKY/WX    TMP DP  RH WIND       PRES   REMARKS
ELKHART        MOSUNNY   81  68  65 W9        30.04
GOSHEN         MOSUNNY   80  70  71 NW10      30.03R
PERU/GRISSOM   MOSUNNY   83  71  66 W10       30.03F
SOUTH BEND     PTSUNNY   79  69  71 W8        30.04S

$$

INZ006>009-017-018-025>027-252300-
NORTHEAST INDIANA

CITY           SKY/WX    TMP DP  RH WIND       PRES   REMARKS
ANGOLA *+      PTSUNNY   81  75  83 W9        30.02S
FORT WAYNE     PTSUNNY   82  69  64 W9        30.03S

$$

INZ028-029-035-036-043>045-051>053-252300-
WEST CENTRAL INDIANA

CITY           SKY/WX    TMP DP  RH WIND       PRES   REMARKS
CRAWFORDSVL +  SUNNY     84  72  68 SW6       30.06S
GREENCASTLE +  MOSUNNY   86  77  74 S3        30.06S HX  97
LAFAYETTE      PTSUNNY   81  72  74 W7        30.03F
TERRE HAUTE    MOSUNNY   88  72  58 SW6       30.04F

$$

INZ030>032-037>040-046>048-054>057-064-065-252300-
CENTRAL INDIANA

CITY           SKY/WX    TMP DP  RH WIND       PRES   REMARKS
COLUMBUS       MOSUNNY   88  77  70 CALM      30.05S HX 100
INDIANAPOLIS   MOSUNNY   88  71  57 W13       30.04F
-EAGLE CREEK   SUNNY     87  70  56 W5        30.04F
MT COMFORT *+  MOSUNNY   84  72  65 SW8       30.05F
SHELBYVILLE    SUNNY     88  72  58 W10       30.04F

$$

INZ033-034-041-042-049-050-058-059-252300-
EAST CENTRAL INDIANA

CITY           SKY/WX    TMP DP  RH WIND       PRES   REMARKS
MUNCIE         SUNNY     86  70  58 W9G20     30.04S

$$

INZ060-061-067>069-081>083-085>088-252300-
SOUTHWEST INDIANA

CITY           SKY/WX    TMP DP  RH WIND       PRES   REMARKS
EVANSVILLE     MOSUNNY   91  69  48 SW8       30.05F HX  96
HUNTINGBURG *+ SUNNY     91  72  52 SW8       30.05F HX  98

$$

INZ062-063-066-070>080-084-089>092-252300-
SOUTH CENTRAL AND SOUTHEAST INDIANA

CITY           SKY/WX    TMP DP  RH WIND       PRES   REMARKS
BLOOMINGTON    SUNNY     85  74  69 W5        30.06F
MADISON *+     SUNNY     88  70  55 SW7       30.08F

$$





USA.gov is the U.S. government's official web portal to all federal, state and local government web resources and services.